Regional Weather Roundup
Issued by NWS Green Bay, WI

Home | Current Version | Previous Version | Graphics & Text | Print | Product List | Glossary Off
Versions: 1 2 3 4 5 6 7 8 9 10 11 12 13 14 15 16 17 18 19 20 21 22 23 24 25 26 27 28 29 30 31 32 33 34 35 36 37 38 39 40 41 42 43 44 45 46 47 48 49 50

000
ASUS43 KGRB 250659
RWRGRB

NORTH-CENTRAL AND NORTHEAST WISCONSIN REGIONAL WEATHER ROUNDUP
NATIONAL WEATHER SERVICE GREEN BAY WI
200 AM CDT SAT OCT 25 2014

WIZ005-009-010>012-018-019-250800-
NORTH CENTRAL WISCONSIN

CITY           SKY/WX    TMP DP  RH WIND       PRES   REMARKS
IRONWOOD       CLEAR     54  46  76 W13       29.76R
MANITOWISH WTR NOT AVBL
ARBOR VITAE    NOT AVBL
EAGLE RIVER    NOT AVBL
LAND O LAKES   NOT AVBL
RHINELANDER    PTCLDY    51  50  96 W7        29.81S FOG
PHILLIPS       NOT AVBL
ANTIGO         NOT AVBL
TOMAHAWK       NOT AVBL
MERRILL        NOT AVBL
$$

WIZ013-073-250800-
NORTHEAST WISCONSIN

CITY           SKY/WX    TMP DP  RH WIND       PRES   REMARKS
IRON MOUNTAIN  CLEAR     54  49  83 W10       29.74S
MARINETTE      CLOUDY    54  50  87 W7        29.76F
$$

WIZ017-030-035>037-045-250800-
CENTRAL WISCONSIN

CITY           SKY/WX    TMP DP  RH WIND       PRES   REMARKS
MEDFORD        NOT AVBL
WAUSAU         CLOUDY    56  53  90 W7        29.82S FOG
MOSINEE        NOT AVBL
MARSHFIELD     CLOUDY    55  53  93 W10       29.84S FOG
WISC RAPIDS    CLOUDY    55  54  96 W9G16     29.87S FOG
STEVENS POINT  NOT AVBL
WAUPACA        NOT AVBL
SHAWANO        NOT AVBL
CLINTONVILLE   NOT AVBL
$$

WIZ038-039-048-051-250800-
FOX VALLEY

CITY           SKY/WX    TMP DP  RH WIND       PRES   REMARKS
NWS GREEN BAY  CLOUDY    53  51  93 SW5       29.82S
APPLETON       NOT AVBL
OSHKOSH        CLOUDY    56  53  90 W7        29.84S
FOND DU LAC    MOCLDY    52  48  86 SW5       29.86R
$$

WIZ022-050-052-250800-
EAST CENTRAL WISCONSIN

CITY           SKY/WX    TMP DP  RH WIND       PRES   REMARKS
STURGEON BAY   CLOUDY    55  52  88 W10       29.80R
MANITOWOC      NOT AVBL
SHEBOYGAN      PTCLDY    49  47  93 SW7       29.83F
$$

LMZ563-521-522-541>543-250800-
LAKESHORE

STATION/POSITION TIME  TEMP    WIND        PRES    VSBY  WAVE
                       AIR SEA DIR/SP/G                  HT/PER
                 (UTC) (F)     (DEG/KT/KT) (MB)    (MI)  (FT/S)
SHEBOYGAN LKSHOR 0600   54 51  200/  8/  8 1010.7F
KEWAUNEE LKSHORE 0600   54     220/  6/  8 1008.2F
NORTHPORT PIER   0600   55     230/  2/  8 1008.1F
N MID LAKE BUOY  0600   51 51  210/ 21/ 25 1008.0F         5/ 5
SISTER BAY LKSHO 0600          220/ 14/ 18   N/A
CHAMBERS ISLAND  0600   54     200/  7/ 12 1008.5F
MENOMINEE LKSHOR 0600   54     240/  9/ 14 1009.0F
$$



USA.gov is the U.S. government's official web portal to all federal, state and local government web resources and services.